Location: Les Moreaux
(47.2278°N, 1.4966°E)
Time: 00:29:58
(UTC+00:00)

Cosmos 1980 Rocket - Pass Details

Date: 19 May 2025
Orbit: 829 x 848 km, 71.0° (Epoch: 16 December)

Event Time Altitude Azimuth Distance (km) Brightness Sun altitude
Rises 20:38:07 0° 337° (NNW) 3,382 6.8 -10.1°
Reaches altitude 10° 20:40:51 10° 348° (NNW) 2,445 5.6 -10.4°
Maximum altitude 20:45:49 32° 50° (NE) 1,399 3.3 -11.0°
Enters shadow 20:50:20 12° 111° (ESE) 2,293 3.9 -11.6°
